Terminal Aerodrome Forecast
Issued by NWS

Home | Current Version | Previous Version | Text Only | Print | Product List | Glossary On
Versions: 1 2 3 4 5 6 7 8 9 10 11 12 13 14 15 16 17 18 19 20 21 22 23 24 25 26
000
FTUS44 KEWX 181100
TAFSSF
TAF
KSSF 181125Z 1812/1912 13004KT P6SM BKN008 OVC060
      TEMPO 1812/1816 -TSRA BKN010CB OVC060
     FM181600 17007KT P6SM VCSH BKN030
     FM182100 10008KT P6SM VCTS BKN040CB
     FM190600 10005KT P6SM BKN012 OVC035 PROB30 1906/1910 TSRA
      BKN020 OVC040CB=

USA.gov is the U.S. government's official web portal to all federal, state and local government web resources and services.